Weather History for Manassas, VA

Change the Weather History Date:

Thursday, April 25, 2013

  Actual Average Record
Temperature  
Mean Temperature 54 °F -  
Max Temperature 64 °F 66 °F 87 °F (2011)
Min Temperature 44 °F 41 °F 32 °F (1999)
Degree Days  
Heating Degree Days 11    
Growing Degree Days 4 (Base 50)    
Moisture  
Dew Point 34 °F    
Average Humidity 48    
Maximum Humidity 82    
Minimum Humidity 24    
Precipitation  
Precipitation 0.00 in - - ()
Sea Level Pressure  
Sea Level Pressure 30.22 in    
Wind  
Wind Speed 11 mph (NNW)    
Max Wind Speed 21 mph    
Max Gust Speed 36 mph    
Visibility 10 miles    
Events      
Averages and records for this station are not official NWS values.
T = Trace of Precipitation, MM = Missing Value Source: NWS Daily Summary

Daily Weather History Graph

Daily Weather History Graph

Search for Another Location

Airport:

Trip Planner

Search our weather history database for the weather conditions in past years. The results will help you decide how hot, cold, wet, or windy it might be!

Date:

Astronomy

Apr. 25, 2013 Rise Set
Actual Time 6:19 AM EDT 7:56 PM EDT
Civil Twilight 5:51 AM EDT 8:25 PM EDT
Nautical Twilight 5:17 AM EDT 8:59 PM EDT
Astronomical Twilight 4:41 AM EDT 9:35 PM EDT
Moon 8:07 PM EDT (4/25) 6:01 AM EDT (4/25)
Length of Visible Light 14h 33m
Length of Day
13h 37m
Full, 100% of the Moon is Illuminated
Apr 25
Full
Apr 25
Full
May 2
Last Quarter
May 9
New
May 18
First Quarter

Hourly Weather History & Observations

Time (EDT) Temp. Windchill Dew Point Humidity Pressure Visibility Wind Dir Wind Speed Gust Speed Precip Events Conditions
12:15 AM 60.8 °F - 51.8 °F 72% 30.01 in 10.0 mi NNW 16.1 mph 25.3 mph N/A   Overcast
12:35 AM 57.2 °F - 48.2 °F 72% 30.02 in 10.0 mi NNW 15.0 mph 20.7 mph N/A   Overcast
12:55 AM 57.2 °F - 44.6 °F 63% 30.04 in 10.0 mi NNW 20.7 mph 29.9 mph N/A   Overcast
1:15 AM 57.2 °F - 42.8 °F 59% 30.05 in 10.0 mi NNW 13.8 mph 20.7 mph N/A   Overcast
1:35 AM 55.4 °F - 42.8 °F 63% 30.06 in 10.0 mi NNW 16.1 mph 20.7 mph N/A   Overcast
1:55 AM 53.6 °F - 41.0 °F 62% 30.07 in 10.0 mi NNW 17.3 mph 21.9 mph N/A   Overcast
2:15 AM 53.6 °F - 39.2 °F 58% 30.08 in 10.0 mi NNW 15.0 mph 25.3 mph N/A   Overcast
2:35 AM 53.6 °F - 37.4 °F 54% 30.08 in 10.0 mi NNW 18.4 mph 24.2 mph N/A   Overcast
2:55 AM 51.8 °F - 35.6 °F 54% 30.09 in 10.0 mi NNW 19.6 mph 26.5 mph N/A   Overcast
3:15 AM 51.8 °F - 35.6 °F 54% 30.11 in 10.0 mi NNW 20.7 mph 29.9 mph N/A   Overcast
3:35 AM 51.8 °F - 35.6 °F 54% 30.12 in 10.0 mi NNW 17.3 mph 28.8 mph N/A   Overcast
3:55 AM 50.0 °F - 33.8 °F 54% 30.13 in 10.0 mi NW 16.1 mph 35.7 mph N/A   Overcast
4:15 AM 50.0 °F - 35.6 °F 58% 30.15 in 10.0 mi NNW 13.8 mph 18.4 mph N/A   Overcast
4:35 AM 48.2 °F - 33.8 °F 58% 30.17 in 10.0 mi NNW 12.7 mph 17.3 mph N/A   Mostly Cloudy
4:55 AM 46.4 °F 42.4 °F 33.8 °F 62% 30.18 in 10.0 mi NNW 8.1 mph - N/A   Clear
5:15 AM 46.4 °F 40.7 °F 33.8 °F 62% 30.19 in 10.0 mi NW 12.7 mph - N/A   Clear
5:35 AM 46.4 °F 42.9 °F 33.8 °F 62% 30.21 in 10.0 mi NW 6.9 mph - N/A   Scattered Clouds
5:55 AM 44.6 °F 41.4 °F 33.8 °F 66% 30.22 in 10.0 mi North 5.8 mph - N/A   Partly Cloudy
6:15 AM 44.6 °F 40.2 °F 35.6 °F 71% 30.23 in 10.0 mi North 8.1 mph - N/A   Clear
6:35 AM 44.6 °F 40.7 °F 33.8 °F 66% 30.24 in 10.0 mi North 6.9 mph - N/A   Clear
6:55 AM 44.6 °F 41.4 °F 33.8 °F 66% 30.25 in 10.0 mi NNW 5.8 mph - N/A   Clear
7:15 AM 46.4 °F 42.4 °F 33.8 °F 62% 30.25 in 10.0 mi North 8.1 mph - N/A   Clear
7:35 AM 46.4 °F 41.5 °F 33.8 °F 62% 30.26 in 10.0 mi North 10.4 mph 17.3 mph N/A   Clear
7:55 AM 48.2 °F - 33.8 °F 58% 30.27 in 10.0 mi NNW 17.3 mph 21.9 mph N/A   Clear
8:15 AM 48.2 °F - 32.0 °F 54% 30.28 in 10.0 mi North 11.5 mph 20.7 mph N/A   Clear
8:35 AM 50.0 °F - 32.0 °F 50% 30.28 in 10.0 mi NNW 13.8 mph 21.9 mph N/A   Clear
8:55 AM 51.8 °F - 32.0 °F 47% 30.28 in 10.0 mi North 17.3 mph - N/A   Clear
9:15 AM 51.8 °F - 33.8 °F 50% 30.28 in 10.0 mi North 16.1 mph 24.2 mph N/A   Clear
9:35 AM 51.8 °F - 33.8 °F 50% 30.29 in 10.0 mi NNW 12.7 mph 17.3 mph N/A   Clear
9:55 AM 51.8 °F - 33.8 °F 50% 30.29 in 10.0 mi NNW 11.5 mph - N/A   Clear
10:15 AM 51.8 °F - 32.0 °F 47% 30.30 in 10.0 mi NNW 5.8 mph - N/A   Clear
10:35 AM 53.6 °F - 32.0 °F 44% 30.30 in 10.0 mi NNW 10.4 mph - N/A   Clear
10:45 AM 53.6 °F - 33.8 °F 47% 30.30 in 10.0 mi NW 13.8 mph 18.4 mph N/A   Clear
10:55 AM 53.6 °F - 33.8 °F 47% 30.30 in 10.0 mi WNW 8.1 mph - N/A   Clear
11:15 AM 53.6 °F - 33.8 °F 47% 30.30 in 10.0 mi North 5.8 mph - N/A   Clear
11:35 AM 55.4 °F - 33.8 °F 44% 30.29 in 10.0 mi North 3.5 mph - N/A   Clear
11:55 AM 57.2 °F - 33.8 °F 41% 30.29 in 10.0 mi North 5.8 mph - N/A   Clear
12:15 PM 57.2 °F - 32.0 °F 38% 30.28 in 10.0 mi NW 5.8 mph - N/A   Clear
12:35 PM 57.2 °F - 32.0 °F 38% 30.28 in 10.0 mi Calm Calm - N/A   Clear
12:45 PM 57.2 °F - 33.8 °F 41% 30.27 in 10.0 mi NNE 9.2 mph - N/A   Clear
12:55 PM 59.0 °F - 33.8 °F 39% 30.27 in 10.0 mi NE 5.8 mph - N/A   Clear
1:15 PM 57.2 °F - 30.2 °F 36% 30.26 in 10.0 mi North 6.9 mph - N/A   Clear
1:35 PM 60.8 °F - 32.0 °F 34% 30.26 in 10.0 mi NW 4.6 mph - N/A   Clear
1:45 PM 60.8 °F - 30.2 °F 31% 30.25 in 10.0 mi Calm Calm - N/A   Clear
1:55 PM 60.8 °F - 32.0 °F 34% 30.25 in 10.0 mi NNW 5.8 mph - N/A   Clear
2:15 PM 60.8 °F - 30.2 °F 31% 30.24 in 10.0 mi East 3.5 mph - N/A   Clear
2:35 PM 60.8 °F - 30.2 °F 31% 30.24 in 10.0 mi WNW 9.2 mph - N/A   Clear
2:45 PM 62.6 °F - 30.2 °F 30% 30.24 in 10.0 mi WNW 4.6 mph - N/A   Clear
2:55 PM 60.8 °F - 30.2 °F 31% 30.24 in 10.0 mi SW 4.6 mph - N/A   Clear
3:15 PM 62.6 °F - 32.0 °F 32% 30.23 in 10.0 mi SW 3.5 mph - N/A   Clear
3:35 PM 64.4 °F - 30.2 °F 28% 30.23 in 10.0 mi West 6.9 mph - N/A   Clear
3:55 PM 62.6 °F - 28.4 °F 27% 30.21 in 10.0 mi NNE 9.2 mph - N/A   Clear
4:15 PM 64.4 °F - 26.6 °F 24% 30.21 in 10.0 mi Calm Calm - N/A   Clear
4:35 PM 64.4 °F - 28.4 °F 26% 30.20 in 10.0 mi North 5.8 mph - N/A   Clear
4:45 PM 64.4 °F - 28.4 °F 26% 30.21 in 10.0 mi Calm Calm - N/A   Clear
4:55 PM 64.4 °F - 28.4 °F 26% 30.21 in 10.0 mi SW 4.6 mph - N/A   Clear
5:15 PM 62.6 °F - 28.4 °F 27% 30.20 in 10.0 mi East 5.8 mph - N/A   Clear
5:35 PM 64.4 °F - 30.2 °F 28% 30.20 in 10.0 mi SSE 5.8 mph - N/A   Clear
5:55 PM 64.4 °F - 28.4 °F 26% 30.20 in 10.0 mi South 4.6 mph - N/A   Clear
6:15 PM 62.6 °F - 30.2 °F 30% 30.20 in 10.0 mi Calm Calm - N/A   Clear
6:35 PM 64.4 °F - 30.2 °F 28% 30.20 in 10.0 mi SSE 3.5 mph - N/A   Clear
6:55 PM 62.6 °F - 30.2 °F 30% 30.20 in 10.0 mi Calm Calm - N/A   Clear
7:15 PM 62.6 °F - 26.6 °F 26% 30.21 in 10.0 mi Calm Calm - N/A   Clear
7:35 PM 62.6 °F - 28.4 °F 27% 30.21 in 10.0 mi Calm Calm - N/A   Clear
7:55 PM 57.2 °F - 37.4 °F 48% 30.21 in 10.0 mi ESE 5.8 mph - N/A   Clear
8:15 PM 55.4 °F - 35.6 °F 47% 30.22 in 10.0 mi East 3.5 mph - N/A   Clear
8:35 PM 57.2 °F - 33.8 °F 41% 30.22 in 10.0 mi Calm Calm - N/A   Clear
8:55 PM 57.2 °F - 35.6 °F 44% 30.23 in 10.0 mi Calm Calm - N/A   Clear
9:15 PM 51.8 °F - 41.0 °F 67% 30.24 in 10.0 mi Calm Calm - N/A   Clear
9:35 PM 48.2 °F - 41.0 °F 76% 30.25 in 10.0 mi Calm Calm - N/A   Clear
9:55 PM 48.2 °F - 39.2 °F 71% 30.27 in 10.0 mi Calm Calm - N/A   Clear
10:15 PM 48.2 °F - 42.8 °F 82% 30.28 in 10.0 mi Calm Calm - N/A   Scattered Clouds
10:35 PM 48.2 °F - 39.2 °F 71% 30.29 in 10.0 mi Calm Calm - N/A   Mostly Cloudy
10:55 PM 50.0 °F - 41.0 °F 71% 30.31 in 10.0 mi NNW 8.1 mph - N/A   Overcast
11:15 PM 51.8 °F - 39.2 °F 62% 30.33 in 10.0 mi NW 6.9 mph - N/A   Overcast
11:35 PM 53.6 °F - 39.2 °F 58% 30.32 in 10.0 mi Calm Calm - N/A   Overcast
11:55 PM 53.6 °F - 39.2 °F 58% 30.33 in 10.0 mi Calm Calm - N/A   Overcast